Latest Weather Observations for Badgerys Creek

IDN60801

Issued at 2:32 pm EDT Wednesday 22 February 2017 (issued every 30 minutes, with the page automatically refreshed every 10 minutes)

About weather observations | Map of weather stations | Latest weather observations for NSW | Other Formats
Station Details ID: 067108 Name: BADGERYS CREEK AWS Lat: -33.90 Lon: 150.73 Height: 81.2 m
Data from the previous 72 hours. | See also: Recent months at Badgerys Creek
Date/Time
EDT
Temp
°C
App
Temp
°C
Dew
Point
°C
Rel
Hum
%
Delta-T
°C
Wind Press
QNH
hPa
Press
MSL
hPa
Rain since
9am
mm
Dir  Spd
km/h
Gust
km/h
Spd
kts
Gust
kts
22/02:30pm 31.3 31.9 20.3 52 7.3 NE 17 28 9 15 1017.7 1017.3 0.0
22/02:00pm 30.3 31.4 19.6 52 7.0 ENE 13 30 7 16 1018.3 1017.9 0.0
22/01:30pm 30.3 31.7 21.1 58 6.2 NNE 15 28 8 15 1018.8 1018.4 0.0
22/01:00pm 29.8 31.1 21.7 61 5.5 NE 17 32 9 17 1019.1 1018.7 0.0
22/12:30pm 29.4 31.5 22.4 66 4.8 NNE 15 24 8 13 1019.7 1019.3 0.0
22/12:00pm 28.1 29.0 20.9 65 4.8 NE 17 24 9 13 1020.2 1019.8 0.0
22/11:30am 27.4 28.1 20.5 66 4.5 NE 17 22 9 12 1020.7 1020.3 0.0
22/11:00am 26.4 26.4 19.8 67 4.3 NNE 19 24 10 13 1021.4 1021.0 0.0
22/10:30am 25.6 26.0 19.9 70 3.7 N 17 32 9 17 1021.7 1021.3 0.0
22/10:00am 24.7 25.7 20.2 76 2.9 NNE 15 24 8 13 1021.9 1021.5 0.0
22/09:30am 24.1 26.8 20.6 81 2.3 N 7 13 4 7 1022.0 1021.6 0.0
22/09:00am 22.1 25.2 19.5 85 1.7 SW 2 6 1 3 1022.1 1021.7 0.0
22/08:30am 20.3 22.8 18.2 88 1.3 WNW 2 4 1 2 1021.9 1021.5 0.0
22/08:00am 18.2 19.6 16.5 90 1.0 WNW 4 6 2 3 1021.6 1021.2 0.0
22/07:30am 16.6 17.1 15.0 90 0.9 WNW 6 7 3 4 1021.3 1020.9 0.0
22/07:00am 15.9 16.1 14.1 89 1.0 WNW 6 6 3 3 1021.0 1020.6 0.0
22/06:30am 15.2 15.1 13.4 89 1.0 WNW 6 7 3 4 1020.6 1020.2 0.0
22/06:00am 15.0 14.8 13.0 88 1.1 WNW 6 6 3 3 1020.3 1019.9 0.0
22/05:30am 14.9 15.0 12.6 86 1.3 WNW 4 6 2 3 1020.3 1019.9 0.0
22/05:00am 15.6 15.8 13.1 85 1.4 WNW 4 6 2 3 1020.2 1019.8 0.0
22/04:30am 16.0 15.9 13.3 84 1.5 WNW 6 7 3 4 1020.1 1019.7 0.0
22/04:00am 16.0 15.8 13.1 83 1.6 WNW 6 7 3 4 1020.0 1019.6 0.0
22/03:30am 15.8 15.4 12.5 81 1.8 WNW 6 6 3 3 1020.0 1019.6 0.0
22/03:00am 16.2 16.3 12.7 80 1.9 NE 4 4 2 2 1020.2 1019.8 0.0
22/02:30am 16.1 16.8 12.3 78 2.1 CALM 0 0 0 0 1020.4 1020.0 0.0
22/02:00am 17.3 18.2 13.0 76 2.4 CALM 0 0 0 0 1020.5 1020.1 0.0
22/01:30am 17.4 18.3 12.9 75 2.5 CALM 0 0 0 0 1020.8 1020.4 0.0
22/01:00am 17.5 18.3 12.6 73 2.7 CALM 0 0 0 0 1021.1 1020.7 0.0
22/12:30am 18.9 20.0 13.5 71 3.1 CALM 0 0 0 0 1021.2 1020.8 0.0
22/12:00am 19.0 20.0 13.2 69 3.3 CALM 0 0 0 0 1021.3 1020.9 0.0
 
Date/Time
EDT
Temp
°C
App
Temp
°C
Dew
Point
°C
Rel
Hum
%
Delta-T
°C
Wind Press
QNH
hPa
Press
MSL
hPa
Rain since
9am
mm
Dir  Spd
km/h
Gust
km/h
Spd
kts
Gust
kts
21/11:30pm 20.2 21.4 13.9 67 3.6 CALM 0 0 0 0 1021.4 1021.0 0.0
21/11:00pm 20.8 20.9 14.0 65 3.9 NE 6 6 3 3 1021.5 1021.1 0.0
21/10:30pm 21.6 21.3 14.5 64 4.2 NNE 9 13 5 7 1021.4 1021.0 0.0
21/10:00pm 21.7 21.3 14.1 62 4.4 NE 9 13 5 7 1021.4 1021.0 0.0
21/09:30pm 22.4 21.7 14.3 60 4.8 NE 11 15 6 8 1021.1 1020.7 0.0
21/09:00pm 22.9 22.3 14.5 59 5.0 NE 11 15 6 8 1020.9 1020.5 0.0
21/08:30pm 23.3 22.2 14.3 57 5.3 NE 13 24 7 13 1020.6 1020.2 0.0
21/08:00pm 23.7 22.9 14.1 55 5.6 ENE 11 17 6 9 1020.0 1019.6 0.0
21/07:30pm 24.2 23.0 14.0 53 6.0 ENE 13 20 7 11 1019.5 1019.1 0.0
21/07:00pm 24.6 23.8 14.1 52 6.2 E 11 19 6 10 1019.2 1018.8 0.0
21/06:30pm 24.8 23.6 14.0 51 6.4 E 13 19 7 10 1018.7 1018.3 0.0
21/06:00pm 25.2 22.8 13.7 49 6.8 E 19 30 10 16 1018.3 1017.9 0.0
21/05:30pm 25.7 23.6 13.5 46 7.2 E 17 26 9 14 1018.0 1017.6 0.0
21/05:00pm 27.3 25.1 15.0 47 7.5 ENE 20 32 11 17 1017.9 1017.5 0.0
21/04:30pm 27.8 27.0 15.1 46 7.7 ENE 13 24 7 13 1017.9 1017.5 0.0
21/04:00pm 27.7 26.4 15.7 48 7.4 E 17 26 9 14 1018.0 1017.6 0.0
21/03:30pm 28.2 26.6 15.1 44 8.0 E 17 28 9 15 1018.0 1017.6 0.0
21/03:00pm 28.6 27.9 15.5 45 8.0 E 13 30 7 16 1018.1 1017.7 0.0
21/02:30pm 27.8 27.8 15.1 46 7.7 E 9 17 5 9 1018.5 1018.1 0.0
21/02:00pm 26.2 25.3 13.7 46 7.4 NE 11 20 6 11 1018.7 1018.3 0.0
21/01:30pm 26.4 25.2 13.9 46 7.4 NE 13 24 7 13 1019.2 1018.8 0.0
21/01:00pm 25.9 24.3 12.7 44 7.7 NE 13 24 7 13 1019.5 1019.1 0.0
21/12:30pm 26.9 25.2 13.6 44 7.9 NNE 15 28 8 15 1019.7 1019.3 0.0
21/12:00pm 26.0 24.3 12.5 43 7.8 ENE 13 26 7 14 1020.2 1019.8 0.0
21/11:30am 25.6 24.8 11.7 42 7.9 SE 7 15 4 8 1020.5 1020.1 0.0
21/11:00am 24.1 23.6 10.7 43 7.4 SE 4 11 2 6 1020.7 1020.3 0.0
21/10:30am 23.8 23.2 11.8 47 6.8 SE 6 9 3 5 1020.8 1020.4 0.0
21/10:00am 22.2 21.6 11.6 51 5.9 SSW 6 11 3 6 1020.7 1020.3 0.0
21/09:30am 20.9 19.3 11.5 55 5.2 SW 11 15 6 8 1020.5 1020.1 0.0
21/09:00am 19.1 16.9 10.9 59 4.5 SW 13 19 7 10 1020.2 1019.8 0.0
21/08:30am 17.4 15.8 10.1 62 3.9 SW 9 13 5 7 1019.8 1019.4 0.0
21/08:00am 16.0 14.8 9.4 65 3.4 SW 6 7 3 4 1019.4 1019.0 0.0
21/07:30am 14.2 12.5 7.7 65 3.2 SW 6 7 3 4 1019.0 1018.6 0.0
21/07:00am 12.8 10.3 6.4 65 3.1 SW 9 9 5 5 1018.4 1018.0 0.0
21/06:30am 13.1 10.6 6.7 65 3.1 SW 9 9 5 5 1018.2 1017.8 0.0
21/06:00am 12.3 9.2 5.7 64 3.1 SW 11 11 6 6 1017.9 1017.5 0.0
21/05:30am 12.9 9.9 6.0 63 3.3 SW 11 11 6 6 1017.6 1017.2 0.0
21/05:00am 13.0 10.3 5.7 61 3.4 SW 9 11 5 6 1017.3 1017.0 0.0
21/04:30am 14.1 11.2 6.7 61 3.6 SW 11 13 6 7 1017.5 1017.1 0.0
21/04:00am 13.9 11.0 6.3 60 3.6 WSW 11 13 6 7 1017.5 1017.1 0.0
21/03:30am 13.6 11.4 6.2 61 3.5 SW 7 9 4 5 1017.3 1017.0 0.0
21/03:00am 13.6 11.1 6.7 63 3.3 SW 9 13 5 7 1017.2 1016.9 0.0
21/02:30am 13.5 11.0 6.4 62 3.4 SW 9 11 5 6 1017.2 1016.9 0.0
21/02:00am 14.3 12.2 6.6 60 3.7 SW 7 9 4 5 1017.1 1016.8 0.0
21/01:30am 15.3 13.4 7.6 60 3.8 SW 7 9 4 5 1017.2 1016.9 0.0
21/01:00am 13.8 11.7 5.9 59 3.8 SW 6 9 3 5 1017.5 1017.1 0.0
21/12:30am 15.1 13.2 6.9 58 4.0 SW 6 7 3 4 1017.3 1017.0 0.0
21/12:00am 14.7 12.4 5.8 55 4.3 SW 7 7 4 4 1017.2 1016.9 0.0
 
Date/Time
EDT
Temp
°C
App
Temp
°C
Dew
Point
°C
Rel
Hum
%
Delta-T
°C
Wind Press
QNH
hPa
Press
MSL
hPa
Rain since
9am
mm
Dir  Spd
km/h
Gust
km/h
Spd
kts
Gust
kts
20/11:30pm 15.6 13.4 5.5 51 4.8 SW 6 6 3 3 1016.9 1016.6 0.0
20/11:00pm 16.9 14.8 5.8 48 5.4 SW 6 6 3 3 1016.5 1016.2 0.0
20/10:30pm 18.8 18.0 6.3 44 6.2 CALM 0 0 0 0 1016.2 1015.9 0.0
20/10:00pm 18.5 17.1 5.4 42 6.4 ENE 2 4 1 2 1016.0 1015.7 0.0
20/09:30pm 20.0 18.2 5.3 38 7.2 ESE 4 6 2 3 1015.4 1015.1 0.0
20/09:00pm 19.1 15.7 2.0 32 7.8 E 9 13 5 7 1014.6 1014.3 0.0
20/08:30pm 21.3 18.5 2.1 28 9.0 SSW 6 7 3 4 1013.6 1013.3 0.0
20/08:00pm 21.8 17.9 0.9 25 9.6 SW 11 15 6 8 1013.0 1012.7 0.0
20/07:30pm 24.2 20.4 1.8 23 10.6 SW 11 15 6 8 1012.2 1011.9 0.0
20/07:00pm 26.0 21.2 2.7 22 11.4 SW 17 22 9 12 1011.6 1011.2 0.0
20/06:30pm 26.7 21.6 3.2 22 11.6 SW 19 24 10 13 1011.0 1010.6 0.0
20/06:00pm 27.1 23.2 5.4 25 11.2 SW 15 20 8 11 1010.6 1010.2 0.0
20/05:30pm 27.9 24.9 4.2 22 12.0 SSW 9 17 5 9 1010.3 1009.9 0.0
20/05:00pm 28.1 24.3 5.6 24 11.7 WSW 15 26 8 14 1010.0 1009.6 0.0
20/04:30pm 27.7 24.9 8.6 30 10.5 WSW 13 20 7 11 1009.8 1009.4 0.0
20/04:00pm 27.1 24.2 4.8 24 11.4 SW 9 22 5 12 1009.9 1009.5 0.0
20/03:30pm 27.5 22.7 4.5 23 11.7 SW 19 28 10 15 1009.8 1009.4 0.0
20/03:00pm 26.9 24.4 4.0 23 11.5 W 6 15 3 8 1009.9 1009.5 0.0
20/02:30pm 26.9 22.2 5.2 25 11.2 WSW 19 32 10 17 1010.1 1009.7 0.0
20/02:00pm 27.4 23.7 7.8 29 10.6 WSW 17 28 9 15 1010.3 1009.9 0.0
20/01:30pm 25.4 22.8 9.3 36 8.8 WSW 13 20 7 11 1010.5 1010.1 0.0
20/01:00pm 25.1 22.7 11.3 42 7.8 WNW 15 26 8 14 1010.8 1010.4 0.0
20/12:30pm 24.2 21.5 7.4 34 8.8 W 11 22 6 12 1011.0 1010.6 0.0
20/12:00pm 24.3 20.1 5.6 30 9.5 SW 17 26 9 14 1011.0 1010.6 0.0
20/11:30am 23.2 19.3 5.2 31 9.0 W 15 35 8 19 1011.3 1010.9 0.0
20/11:00am 22.7 18.6 6.0 34 8.5 WSW 17 28 9 15 1011.6 1011.2 0.0
20/10:30am 21.4 16.2 5.3 35 8.0 W 22 35 12 19 1011.8 1011.4 0.0
20/10:00am 21.1 16.5 6.6 39 7.4 W 20 32 11 17 1011.9 1011.5 0.0
20/09:30am 20.2 15.2 6.5 41 6.9 WSW 22 35 12 19 1011.7 1011.3 0.0
20/09:00am 19.4 15.1 6.8 44 6.4 W 19 28 10 15 1011.6 1011.2 0.0
20/08:30am 19.0 14.2 7.4 47 5.9 W 22 30 12 16 1011.6 1011.2 0.0
20/08:00am 18.3 14.0 8.0 51 5.3 W 20 26 11 14 1011.5 1011.1 0.0
20/07:30am 17.3 14.7 7.9 54 4.8 WNW 11 15 6 8 1011.2 1010.8 0.0
20/07:00am 15.8 11.8 6.8 55 4.4 W 17 26 9 14 1010.8 1010.4 0.0
20/06:30am 15.1 13.3 5.3 52 4.7 WSW 4 7 2 4 1010.4 1010.0 0.0
20/06:00am 16.0 13.4 5.9 51 4.9 WSW 9 13 5 7 1010.2 1009.8 0.0
20/05:30am 15.8 13.6 6.0 52 4.7 SW 7 13 4 7 1009.6 1009.2 0.0
20/05:00am 16.5 14.6 6.6 52 4.9 W 6 7 3 4 1009.2 1008.8 0.0
20/04:30am 17.1 14.1 7.5 53 4.8 WSW 13 22 7 12 1008.8 1008.4 0.0
20/04:00am 17.0 14.0 7.9 55 4.6 WSW 13 17 7 9 1008.5 1008.1 0.0
20/03:30am 16.1 15.2 7.6 57 4.3 SSE 2 9 1 5 1008.2 1007.8 0.0
20/03:00am 17.1 16.6 9.3 60 4.1 SW 2 6 1 3 1007.8 1007.4 0.0
20/02:30am 17.3 16.1 10.4 64 3.7 SW 7 11 4 6 1007.6 1007.2 0.0
20/02:00am 17.7 14.5 11.9 69 3.2 WSW 20 24 11 13 1007.4 1007.0 0.0
20/01:30am 17.1 15.9 12.8 76 2.4 W 11 19 6 10 1007.5 1007.1 0.0
20/01:00am 16.5 16.6 13.8 84 1.5 SW 6 9 3 5 1007.4 1007.0 0.0
20/12:30am 16.4 16.5 13.9 85 1.4 WSW 6 9 3 5 1007.5 1007.1 0.0
20/12:00am 17.1 17.1 14.2 83 1.7 SW 7 9 4 5 1007.6 1007.2 0.0
 
Date/Time
EDT
Temp
°C
App
Temp
°C
Dew
Point
°C
Rel
Hum
%
Delta-T
°C
Wind Press
QNH
hPa
Press
MSL
hPa
Rain since
9am
mm
Dir  Spd
km/h
Gust
km/h
Spd
kts
Gust
kts
19/11:30pm 17.5 17.2 14.4 82 1.8 SW 9 11 5 6 1007.3 1006.9 0.0
19/11:00pm 17.6 17.6 14.1 80 2.0 SW 7 9 4 5 1007.6 1007.2 0.0
19/10:30pm 17.8 18.3 13.9 78 2.2 SW 4 6 2 3 1007.9 1007.5 0.0
19/10:00pm 18.3 18.4 14.0 76 2.5 SSW 6 7 3 4 1007.0 1006.6 0.0
19/09:30pm 19.0 18.7 14.5 75 2.6 SW 9 15 5 8 1006.5 1006.1 0.0
19/09:00pm 19.7 19.5 14.7 73 2.9 S 9 15 5 8 1006.8 1006.4 0.0
19/08:30pm 21.0 22.2 15.8 72 3.1 E 4 6 2 3 1006.6 1006.2 0.0
19/08:00pm 22.3 23.7 16.3 69 3.7 NE 4 7 2 4 1006.4 1006.0 0.0
19/07:30pm 23.0 24.4 16.5 67 4.0 NNW 4 6 2 3 1006.2 1005.8 0.0
19/07:00pm 23.3 22.6 16.4 65 4.2 ESE 15 24 8 13 1005.4 1005.0 0.0
19/06:30pm 24.4 22.8 16.6 61 4.8 E 20 26 11 14 1005.1 1004.7 0.0
19/06:00pm 25.0 23.7 16.7 60 5.1 E 19 30 10 16 1004.8 1004.4 0.0
19/05:30pm 24.9 22.6 15.8 57 5.5 ENE 22 32 12 17 1004.5 1004.2 0.0
19/05:00pm 26.4 24.3 16.3 53 6.3 E 22 32 12 17 1004.4 1004.1 0.0
19/04:30pm 27.3 25.8 15.3 48 7.3 ENE 17 35 9 19 1004.3 1004.0 0.0
19/04:00pm 28.0 27.9 13.9 42 8.5 E 7 13 4 7 1004.6 1004.3 0.0
19/03:30pm 27.1 25.7 12.3 39 8.6 NNE 11 20 6 11 1004.9 1004.5 0.0
19/03:00pm 27.3 25.4 12.9 41 8.5 NNE 15 24 8 13 1005.6 1005.2 0.0

Other Formats:

Comma delimited format used in spreadsheet applications
http://www.bom.gov.au/fwo/IDN60801/IDN60801.94752.axf

JavaScript Object Notation format (JSON) in row-major order
http://www.bom.gov.au/fwo/IDN60801/IDN60801.94752.json